Location: Martz Observatory
(42.0083°N, 79.0667°W)
Time: 04:50:45
(UTC-04:00)

COSMOS 2406 - Pass Details

Date: 26 May 2018
Orbit: 844 x 863 km, 71.0° (Epoch: 19 August)

Event Time Altitude Azimuth Distance (km) Brightness Sun altitude
Rises 05:05:39 0° 327° (NNW) 3,450 6.4 -7.2°
Reaches altitude 10° 05:08:19 10° 318° (NW) 2,510 5.6 -6.8°
Maximum altitude 05:13:27 34° 256° (WSW) 1,385 3.9 -6.0°
Drops below altitude 10° 05:18:33 10° 193° (SSW) 2,494 5.2 -5.2°
Sets 05:21:12 0° 184° (S) 3,424 6.0 -4.8°
